Regional Weather Roundup
Issued by NWS

Home | Current Version | Previous Version | Graphics & Text | Print | Product List | Glossary On
Versions: 1 2 3 4 5 6 7 8 9 10 11 12 13 14 15 16 17 18 19 20 21 22 23 24 25 26 27 28 29 30 31 32 33 34 35 36 37 38 39 40 41 42 43 44 45 46 47 48 49 50
000
ASUS43 KLMK 240410
RWRKY
KENTUCKY REGIONAL WEATHER ROUNDUP
NATIONAL WEATHER SERVICE LOUISVILLE KY
1100 PM EST FRI FEB 23 2018

NOTE "FAIR" INDICATES FEW OR NO CLOUDS BELOW 12,000 FEET
WITH NO SIGNIFICANT WEATHER AND/OR OBSTRUCTIONS TO VISIBILITY.

KYZ001>023-026-027-061>063-070>075-240500-
WESTERN AND SOUTH CENTRAL KENTUCKY

CITY           SKY/WX    TMP DP  RH WIND       PRES   REMARKS
PADUCAH        MOCLDY    51  48  89 NE8       30.18F
HENDERSON      MOCLDY    49  47  93 CALM      30.20F
OWENSBORO      CLOUDY    51  48  89 E5        30.21F
HOPKINSVILLE   DRIZZLE   57  57 100 CALM      30.18F
BOWLING GREEN  MOCLDY    58  58 100 CALM      30.19F FOG
GLASGOW        CLOUDY   N/A N/A N/A CALM      30.19F
$$

KYZ024-025-028>034-038-045-046-053-240500-
NORTH CENTRAL KENTUCKY

CITY           SKY/WX    TMP DP  RH WIND       PRES   REMARKS
LOUISVILLE/SDF CLOUDY    58  55  90 NE3       30.21S
LOUISVILLE/LOU MOCLDY    57  56  96 NW3       30.21F
FORT KNOX      LGT RAIN  55  55 100 CALM      30.20F
$$

KYZ035>037-039>044-047>052-055>060-089>105-240500-
NORTHEAST KENTUCKY

CITY           SKY/WX    TMP DP  RH WIND       PRES   REMARKS
LEXINGTON      CLOUDY    60  58  92 E5        30.19F
COVINGTON      CLOUDY    51  51 100 CALM      30.19F
FRANKFORT      LGT RAIN  59  56  89 CALM      30.18F
$$

KYZ054-064>069-076>088-106>120-240500-
SOUTHEAST KENTUCKY

CITY           SKY/WX    TMP DP  RH WIND       PRES   REMARKS
JACKSON        LGT RAIN  65  57  75 NW6       30.21S
LONDON         MOCLDY    64  57  78 CALM      30.20F
SOMERSET       FAIR      63  54  72 MISG      30.20F
MIDDLESBORO    FAIR      57  55  93 CALM      30.23F
MONTICELLO     FAIR      60  55  83 W5        30.20F
$$





USA.gov is the U.S. government's official web portal to all federal, state and local government web resources and services.